Retour au catalogue

OTTER PUP 2

ActifScienceSSO
NORAD 64537·PAYLOAD·🇺🇸 United States

Lancé Jun 23, 2025 depuis Vandenberg Space Force Base

Loading…

Prochains Passages (prochaines 24 heures)

TLE

FraisSource: Space-Track

Époque: Sep 14, 2026, 02:49 UTC

1 64537U 25135K   26257.11775107  .00000308  00000-0  15879-4 0  9997
2 64537  97.4807  12.2734 0002509 196.9714 163.1439 15.23532260 68419

Suivez OTTER PUP 2 en temps réel avec AllMySat

Download on the App Store